Regional Weather Roundup
Issued by NWS Sioux Falls, SD

Home | Current Version | Previous Version | Text Only | Print | Product List | Glossary On
Versions: 1 2 3 4 5 6 7 8 9 10 11 12 13 14 15 16 17 18 19 20 21 22 23 24 25 26 27 28 29 30 31 32 33 34 35 36 37 38 39 40 41 42 43 44 45 46 47 48 49 50
000
ASUS43 KFSD 010702
RWRFSD

WEATHER ROUNDUP FOR SE SOUTH DAKOTA/SW MINNESOTA/NW IOWA
NATIONAL WEATHER SERVICE SIOUX FALLS SD
200 AM CDT WED JUL 01 2015

NOTE: "FAIR" INDICATES FEW OR NO CLOUDS BELOW 12,000 FEET WITH NO
SIGNIFICANT WEATHER AND OR OBSTRUCTIONS TO VISIBILITY.


SDZ038>040-050-052>070-010800-
SOUTHEAST SOUTH DAKOTA

CITY           SKY/WX    TMP DP  RH WIND       PRES   REMARKS
BROOKINGS      CLOUDY    64  59  82 SE9       29.93S
CHAMBERLAIN    CLOUDY    65  64  96 E6        29.89R
HURON          CLOUDY    67  67 100 S5        29.87S FOG
MADISON        PTSUNNY   63  63 100 SE12      29.91F
MITCHELL       MOCLDY    66  65  96 SE3       29.88F
SIOUX FALLS    PTCLDY    65  62  90 E7        29.92R
WINNER         FAIR      69  60  73 S6        29.87F
YANKTON        MOCLDY    64  63  94 E3        29.87F
$$

MNZ071-072-080-081-089-090-097-098-010800-
SOUTHWEST MINNESOTA

CITY           SKY/WX    TMP DP  RH WIND       PRES   REMARKS
FAIRMONT       CLEAR     61  54  77 E5        29.94R
JACKSON        CLEAR     61  59  94 E5        29.95S
LUVERNE        MOCLDY    64  61  88 CALM      29.92S
MARSHALL       PTCLDY    63  57  82 SE6         N/A
MONTEVIDEO     PTCLDY    63  63 100 S5        29.93R
PIPESTONE      MOCLDY    64  61  88 SE5       29.93S
REDWOOD FALLS  PTCLDY    65  58  78 E8        29.94R
TRACY          CLEAR     63  60  91 CALM      29.94S
WINDOM         CLEAR     63  57  82 CALM      29.94S
WORTHINGTON    PTCLDY    61  55  82 E6        29.94S
$$

IAZ001>003-012>014-020>022-031-032-NEZ013-014-SDZ071-010800-
NORTHWEST IOWA

CITY           SKY/WX    TMP DP  RH WIND       PRES   REMARKS
DENISON        MOCLDY    66  66 100 CALM      29.89F FOG
ESTHERVILLE    MOCLDY    61  59  93 E7        29.93S
SIOUX CITY     MOCLDY    67  64  90 CALM      29.88F FOG
SPENCER        PTCLDY    63  60  90 E5        29.93R
$$

ABBREVIATIONS USED IN REMARKS
   TC - TEMPERATURE IN CELSIUS
  WCI - WIND CHILL INDEX
   HX - HEAT INDEX
  VSB - VISIBILITY




USA.gov is the U.S. government's official web portal to all federal, state and local government web resources and services.